Regional Weather Roundup
Issued by NWS State College, PA

Home | Current Version | Previous Version | Text Only | Print | Product List | Glossary Off
Versions: 1 2 3 4 5 6 7 8 9 10 11 12 13 14 15 16 17 18 19 20 21 22 23 24 25 26 27 28 29 30 31 32 33 34 35 36 37 38 39 40 41 42 43 44 45 46 47 48 49 50

000
ASUS41 KCTP 241403
RWRCTP

REGIONAL WEATHER ROUNDUP
NATIONAL WEATHER SERVICE STATE COLLEGE PA
900 AM EST TUE JAN 24 2017

Note: "fair" indicates few or no clouds below 12,000 feet with no
significant weather and/or obstructions to visibility.

* = STATION THAT DOES NOT REPORT PRECIPITATION /E.G. RAIN...SNOW...ETC/
    THUNDER OR FOG.

PAZ002>004-007>009-013>016-020>023-029>032-241500-
WESTERN PENNSYLVANIA

CITY           SKY/WX    TMP DP  RH WIND       PRES   REMARKS
ERIE           CLOUDY    35  31  85 N9        29.70R
MEADVILLE      CLOUDY    32  29  88 N9        29.65R
FRANKLIN*        N/A     34  30  86 NW5       29.63R
NEW CASTLE     CLOUDY    35  34  96 NW8       29.68R
BEAVER COUNTY  LGT RAIN  37  36  93 N9        29.60R
BUTLER*        CLOUDY    37  34  87 NW5       29.65S
PITTSBURGH INT LGT RAIN  37  37 100 W7        29.64R
PITTSBURGH     MIX PCPN  36  33  89 W8G16     29.62
INDIANA*       CLOUDY    34  34 100 CALM      29.63S FOG
LATROBE        LGT SNOW  32  32 100 W7        29.64S FOG
WASHINGTON CO* CLOUDY    37  36  93 W6        29.66R
$$

PAZ004>006-010>012-017>019-024>028-033>037-041-042-045-046-049>053-241500-
CENTRAL PENNSYLVANIA

CITY           SKY/WX    TMP DP  RH WIND       PRES   REMARKS
BRADFORD       LGT SNOW  30  28  92 N9        29.57R FOG
DUBOIS         LGT SNOW  33  30  88 W7        29.56F FOG
CLEARFIELD     LGT SNOW  33  33 100 CALM      29.57S FOG
JOHNSTOWN      LGT SNOW  31  31 100 NW12      29.54S VSB 3/4
ALTOONA        SNOW      34  33  96 NW6       29.56R VSB 1/2
STATE COLLEGE  LGT SNOW  32  32 100 CALM      29.56R
WILLIAMSPORT   SNOW      34  32  92 W10       29.55S VSB 1/2
SELINSGROVE    MIX PCPN  36  33  89 NW5       29.54S
FT INDIANTOWN  CLOUDY    37  36  96 NW21G31   29.47S
CAPITAL CITY   CLOUDY    39  33  79 NW13      29.52R
HARRISBURG     CLOUDY    38  35  89 NW17      29.50S
YORK           CLOUDY    37  36  96 NW12G18   29.50S
$$

PAZ038>040-043-044-047-048-054-055-060>062-067>071-241500-
EASTERN PENNSYLVANIA

CITY           SKY/WX    TMP DP  RH WIND       PRES   REMARKS
SCRANTON       CLOUDY    34  32  92 N13       29.48S FOG
MOUNT POCONO   MIX PCPN  30  28  92 N10G20    29.40S FOG
ALLENTOWN      CLOUDY    39  32  76 NW9       29.45R
QUAKERTOWN*    CLOUDY    36  36 100 N9        29.43R
READING        CLOUDY    38  36  92 N10       29.46R
LANCASTER      CLOUDY    38  35  89 NW12      29.47S
COATESVILLE    CLOUDY    37  36  93 N13       29.46R FOG
POTTSTOWN      LGT RAIN  37  35  92 NW9       29.46R FOG
BLUE BELL      CLOUDY    36  34  93 N5        29.42R
DOYLESTOWN     CLOUDY    37  35  92 N9G18     29.41R
WILLOW GROVE   NOT AVBL
NORTH PHILA    LGT RAIN  38  35  89 N17G25    29.42R FOG
PHILADELPHIA   CLOUDY    38  34  85 N16G25    29.42R
$$



USA.gov is the U.S. government's official web portal to all federal, state and local government web resources and services.